[Iaude] MPEC S107: 2017 SP10 [a=2.10,e=0.51,i=11.2,H=26.1]

mpec at mpcdb1.cfa.harvard.edu mpec at mpcdb1.cfa.harvard.edu
Fri Sep 22 13:09:18 EDT 2017


M.P.E.C. 2017-S107                               Issued 2017 Sept. 22, 17:05 UT
 
     The Minor Planet Electronic Circulars contain information on unusual
         minor planets and routine data on comets.  They are published
    on behalf of Division F of the International Astronomical Union by the
          Minor Planet Center, Smithsonian Astrophysical Observatory,
                          Cambridge, MA 02138, U.S.A.

             Prepared using the Tamkin Foundation Computer Network

                              MPC at CFA.HARVARD.EDU
            URL http://www.minorplanetcenter.net/    ISSN 1523-6714


                                   2017 SP10
 
Observations:
     K17S10P  C2017 09 19.44630 22 28 44.867+18 40 38.19         20.5 wLES107F51
     K17S10P  C2017 09 19.46267 22 29 01.765+18 39 00.85         21.3 wLES107F51
     K17S10P  C2017 09 19.47516 22 29 14.716+18 37 46.30         20.7 wLES107F51
     K17S10P* C2017 09 21.46296 23 12 07.151+14 29 43.95         20.0 wLES107F51
     K17S10P  C2017 09 21.47535 23 12 24.590+14 27 45.49         20.0 wLES107F51
     K17S10P  C2017 09 21.48779 23 12 42.212+14 25 45.74         20.1 wLES107F51
     K17S10P KC2017 09 21.81935 23 21 26.29 +13 29 49.6          20.3 RqES107104
     K17S10P KC2017 09 21.82227 23 21 31.18 +13 28 49.9                UES107J95
     K17S10P KC2017 09 21.82367 23 21 32.31 +13 29 01.2                qES107595
     K17S10P KC2017 09 21.82975 23 21 42.16 +13 28 04.0                qES107104
     K17S10P KC2017 09 21.83223 23 21 45.21 +13 27 35.2                qES107595
     K17S10P KC2017 09 21.83494 23 21 50.06 +13 27 12.5          19.6 RqES107104
     K17S10P KC2017 09 21.84505 23 22 04.68 +13 25 24.8          19.6 VqES107595
     K17S10P KC2017 09 21.86215 23 22 30.65 +13 22 30.8          19.4 VqES107595
     K17S10P KC2017 09 21.91256 23 23 47.68 +13 13 51.8                UES107587
     K17S10P KC2017 09 21.91562 23 23 52.37 +13 13 19.6                UES107587
     K17S10P KC2017 09 21.91645 23 23 55.21 +13 12 50.2                UES107J95
     K17S10P KC2017 09 21.92041 23 24 01.30 +13 12 09.6                UES107J95
     K17S10P KC2017 09 21.92113 23 24 00.79 +13 12 22.5          19.8 RUES107587
     K17S10P KC2017 09 21.92365 23 24 06.25 +13 11 35.4          19.9 GUES107J95
     K17S10P KC2017 09 21.97462 23 25 22.38 +13 03 00.1          19.8 GUES107204
     K17S10P KC2017 09 21.98506 23 25 38.40 +13 01 09.1                UES107204
     K17S10P KC2017 09 21.99494 23 25 53.56 +12 59 23.9                UES107204
     K17S10P  C2017 09 22.14158 23 30 05.25 +12 33 38.0                qES107I52
     K17S10P  C2017 09 22.14377 23 30 08.71 +12 33 15.0                qES107I52
     K17S10P  C2017 09 22.14488 23 30 10.48 +12 33 03.4          19.7 VqES107I52
     K17S10P  C2017 09 22.24467 23 32 47.69 +12 14 57.3          19.9 RoES107926
     K17S10P  C2017 09 22.24657 23 32 50.65 +12 14 36.4          19.8 RoES107926
     K17S10P  C2017 09 22.24847 23 32 53.64 +12 14 15.0          19.7 RoES107926
 
Observer details:
104 San Marcello Pistoiese.  Observers P. Bacci, M. Maestripieri.  Measurers
    P. Bacci, L. Tesi, G. Fagioli.  0.60-m f/4 reflector + CCD.
204 Schiaparelli Observatory.  Observer L. Buzzi.  0.60-m f/4.64 reflector
    + CCD.
587 Sormano.  Observers A. Fumagalli, P. Sicoli, A. Testa.  Measurer P. Sicoli.
    0.5-m f/6.8 reflector + CCD.
595 Farra d'Isonzo.  Observers U. Montanar, G. Ierman, E. Pettarin, F. Piani,
    M. Vivona.  Measurer E. Pettarin.  0.61-m f/4.0 reflector + CCD.
926 Tenagra II Observatory.  Observers M. Schwartz, P. R. Holvorcem.  Measurer
    M. Schwartz.  0.81-m f/7 Ritchey-Chretien + CCD.
F51 Pan-STARRS 1, Haleakala.  Observers J. Bulger, T. Lowe, A. Schultz,
    M. Willman.  Measurers K. Chambers, S. Chastel, L. Denneau, H. Flewelling,
    M. Huber, E. Lilly, E. Magnier, R. Wainscoat, C. Waters, R. Weryk.  1.8-m
    Ritchey-Chretien + CCD.
I52 Steward Observatory, Mt. Lemmon Station.  Observer G. J. Leonard.
    Measurers E. J. Christensen, D. C. Fuls, A. R. Gibbs, A. D. Grauer,
    J. A. Johnson, R. A. Kowalski, S. M. Larson, G. J. Leonard, R. G. Matheny,
    R. L. Seaman, F. C. Shelly.  1.0-m reflector + CCD.
J95 Great Shefford.  Observer P. Birtwhistle.  0.40-m f/6.0 Schmidt-Cassegrain
    + CCD.
 
Orbital elements:
2017 SP10                                                Earth MOID = 0.0302 AU
Epoch 2017 Sept. 4.0 TT = JDT 2458000.5                 MPC
M 349.47438              (2000.0)            P               Q
n   0.32345907     Peri.  194.11392     +0.96287662     -0.26988893
a   2.1017925      Node   181.57406     +0.26268859     +0.94138115
e   0.5128169      Incl.   11.22411     +0.06215569     +0.20238948
P   3.05           H   26.1           G   0.15           U   6
Residuals in seconds of arc
170919 F51  0.1-  0.0     170921 595  0.2-  0.7+    170921 204  0.1+  0.3-
170919 F51  0.1+  0.1-    170921 104  1.0+  0.2+    170921 204  0.5+  0.4-
170919 F51  0.0   0.1+    170921 595  0.6+  0.0     170921 204  0.5+  0.3-
170921 F51  0.2+  0.1-    170921 595 (1.9+  0.0 )   170922 I52  0.3-  0.7-
170921 F51  0.2-  0.1+    170921 587  0.9-  0.5+    170922 I52  0.4-  0.2-
170921 F51  0.1-  0.0     170921 587  0.3-  0.1+    170922 I52  0.1-  0.1+
170921 104  1.2-  0.4+    170921 J95  0.5-  0.1+    170922 926  0.5+  0.1-
170921 J95  0.3+  0.5-    170921 J95  0.0   0.5+    170922 926  0.1+  0.1+
170921 595  0.7+  0.3+    170921 587  0.5+  0.3+    170922 926  0.1+  0.1-
170921 104  0.4+  0.6-    170921 J95  0.1-  0.1-

Ephemeris:
2017 SP10                a,e,i = 2.10, 0.51, 11                  q = 1.0240
Date    TT    R. A. (2000) Decl.     Delta      r     Elong.  Phase     V
2017 08 23    20 23 42.6 +24 11 52   0.1869  1.1534   136.2    37.4    24.3
...
2017 09 07    20 45 23.0 +24 52 29   0.1053  1.0841   134.5    41.5    23.0
...
2017 09 15    21 30 07.7 +22 58 13   0.06489 1.0567   140.6    37.1    21.8
...
2017 09 21    23 01 02.9 +15 39 08   0.03960 1.0412   159.2    20.0    20.2
2017 09 22    23 26 03.6 +13 00 50   0.03653 1.0391   164.6    14.8    19.8
2017 09 23    23 54 31.7 +09 44 57   0.03405 1.0371   170.1     9.5    19.5
...
2017 09 29    03 08 45.2 -14 17 49   0.03642 1.0280   135.3    43.2    20.6
...
2017 10 07    05 15 23.5 -24 30 03   0.06855 1.0238   109.0    67.4    22.7
...
2017 10 22    06 12 51.6 -26 40 10   0.1400  1.0407   105.2    67.4    24.3

A. U. Tomatic                (C) Copyright 2017 MPC           M.P.E.C. 2017-S107




More information about the Iaude mailing list